Theta_e
323 324 325 326 327 328 327 327 329 329 331 331 332 333 333 333 333 332 332 332 331 331 331 331 331 330 329 329 329 329 327 322 318 316 315 316 323 330 331 330 332 334 333 320 321 318 315 316 317 320 317 317 312 309 307 305 305 303 294 290 292 290 291 294 294 292 295 295 294 295 294 301 298 297 301 306 305 306 307 308 309 310 312 315 315 315 320 326
323 323 324 325 326 327 328 328 328 329 330 331 331 332 332 333 333 332 332 332 331 331 330 330 330 330 331 331 331 329 325 319 315 315 315 326 332 330 330 334 334 334 328 318 316 315 315 314 316 318 316 312 314 308 305 305 306 297 293 294 292 291 295 296 296 294 294 295 294 294 293 299 301 297 299 301 298 306 306 308 308 312 313 316 318 322 323 326
322 322 323 324 325 327 328 328 328 329 329 329 330 331 332 332 331 331 331 331 330 331 330 330 330 330 330 331 331 328 320 313 313 311 317 330 333 331 331 334 336 334 318 316 317 318 316 316 316 315 313 311 309 307 304 303 305 299 296 292 289 294 294 295 294 297 293 294 294 294 295 295 297 298 299 301 297 303 304 304 305 308 311 313 316 320 323 326
321 322 322 323 324 325 327 328 328 329 330 329 328 330 330 330 331 331 331 330 330 330 330 330 330 330 329 330 329 320 317 311 308 311 312 333 331 331 333 333 334 326 319 319 319 318 319 318 316 316 313 310 310 306 304 301 300 299 296 292 293 293 294 295 294 294 293 292 295 294 293 294 295 297 299 297 300 301 303 304 306 307 310 314 317 320 322 325
321 321 322 322 323 325 326 327 328 328 329 329 328 328 329 329 330 331 331 330 330 330 330 330 329 329 329 329 325 315 311 303 304 309 314 333 332 333 332 333 330 316 319 318 320 319 318 315 315 314 313 306 308 308 307 301 301 297 295 296 295 293 296 294 293 291 293 290 294 292 296 297 296 297 297 299 298 298 302 306 306 307 312 315 317 320 322 324
321 321 321 322 323 324 325 326 327 327 329 329 328 328 329 329 329 330 330 330 330 329 329 329 329 328 328 328 316 311 309 293 304 308 327 334 333 334 333 331 326 319 320 318 316 316 316 315 314 309 308 307 305 306 309 298 298 294 293 293 294 294 293 293 293 291 292 293 293 294 296 295 297 296 295 299 300 299 298 299 307 307 314 317 320 321 321 323
321 321 322 322 322 323 324 325 326 327 328 328 329 328 329 330 329 330 330 329 329 329 329 329 329 328 327 320 308 308 306 302 302 310 330 334 335 333 332 329 326 318 318 315 315 314 313 312 312 308 307 305 305 308 306 303 302 293 292 292 293 293 293 293 293 292 290 293 293 293 295 296 295 296 295 298 302 296 297 299 296 308 316 319 319 320 322 323
320 321 321 321 322 322 323 324 326 326 327 327 329 329 329 330 329 329 329 329 329 329 329 328 328 327 323 309 307 302 301 300 305 309 330 333 331 328 324 316 317 317 317 315 314 312 313 310 308 309 307 305 305 307 305 304 305 299 293 292 293 291 292 293 291 289 290 291 292 294 296 295 295 295 294 297 301 298 308 308 309 313 316 318 319 319 321 322
320 320 320 321 321 322 323 324 325 326 327 327 328 329 329 329 329 328 329 328 329 329 328 328 327 327 321 309 303 299 300 304 307 313 327 323 319 317 315 313 314 316 314 314 315 314 313 308 309 311 305 306 307 303 301 302 302 302 300 296 294 294 293 294 292 290 290 291 291 294 293 292 292 294 295 298 297 298 310 311 312 313 315 316 318 319 320 321
319 320 320 321 321 321 322 323 324 325 327 327 327 328 328 329 329 329 329 328 328 328 328 327 328 325 314 306 302 299 304 306 312 320 321 316 313 313 314 313 312 313 312 310 313 313 310 309 311 311 310 305 307 305 304 305 305 300 297 297 299 299 297 296 294 292 290 293 292 295 292 293 293 295 296 295 294 303 309 310 311 312 314 316 317 318 320 321
319 320 320 320 320 321 322 323 323 325 326 327 327 327 327 328 328 328 328 328 327 327 327 327 327 319 311 307 302 299 307 315 317 318 316 313 311 312 310 311 313 312 312 309 312 314 311 313 312 312 311 307 308 302 303 304 302 299 298 300 301 302 300 298 292 292 291 294 290 295 293 292 292 294 296 297 295 305 305 309 311 312 312 314 316 318 320 320
319 319 319 320 320 321 322 322 323 324 325 326 327 327 327 327 328 327 327 328 327 327 327 327 325 316 309 307 303 301 308 312 317 315 313 312 310 309 309 312 313 313 312 309 310 311 313 313 313 311 305 310 303 301 301 304 302 298 299 301 301 301 301 297 298 294 294 294 291 294 293 291 292 292 298 294 299 302 304 307 311 311 311 313 315 317 318 319
318 318 319 319 320 320 321 322 322 323 324 325 326 326 326 327 328 327 327 327 327 327 327 327 323 315 310 302 304 309 309 311 316 311 310 308 305 305 306 308 311 313 314 312 310 310 312 313 314 310 309 308 303 302 305 301 297 299 297 297 298 297 298 301 294 292 293 294 291 293 289 288 291 296 295 291 300 301 301 304 308 310 311 311 313 315 317 318
317 317 318 318 319 319 320 321 322 323 323 325 325 325 326 327 327 328 327 326 327 327 326 327 320 313 309 303 307 308 310 315 312 310 309 309 309 306 306 306 307 307 311 312 310 312 314 314 315 310 308 306 303 306 301 300 300 298 298 296 294 294 295 300 294 292 296 293 290 293 289 289 290 293 295 293 299 300 299 302 306 308 310 310 312 314 315 317
316 317 317 317 318 318 319 320 321 322 323 324 325 325 325 326 326 326 327 326 327 327 326 326 318 312 305 304 311 312 323 318 312 309 310 309 306 304 303 305 305 306 307 310 310 312 312 313 312 307 302 302 304 301 297 298 296 294 297 294 289 292 295 293 294 293 294 293 290 294 288 291 294 297 294 293 299 297 297 298 304 306 308 309 311 313 314 316
316 316 317 317 318 318 319 319 320 321 322 323 324 324 324 325 325 326 327 326 327 326 325 318 314 312 305 301 307 325 321 315 314 311 310 308 308 304 303 303 305 308 309 306 311 311 310 313 306 301 301 303 300 297 296 295 294 292 294 288 288 286 290 291 296 291 293 293 294 293 290 286 291 291 289 290 299 297 296 295 299 304 306 308 310 312 314 315
315 315 316 316 317 318 318 319 319 320 321 322 323 323 323 323 325 326 327 326 325 325 321 313 314 314 300 310 320 312 311 316 315 309 310 309 307 304 304 304 302 303 306 307 309 310 308 304 300 303 304 299 298 299 294 292 290 291 289 292 288 288 288 290 292 291 291 292 291 292 289 288 293 296 290 291 297 298 297 297 295 299 304 308 309 311 312 314
314 314 315 316 316 317 317 318 319 319 320 321 321 322 322 324 326 326 325 324 324 322 318 318 315 308 304 309 302 306 315 313 313 309 307 308 306 305 304 297 300 303 304 303 307 304 303 299 301 298 299 298 297 297 294 290 292 291 288 288 290 286 286 288 289 292 291 290 290 289 288 291 293 296 295 290 294 296 296 297 297 297 301 305 308 309 310 312
313 314 315 315 316 316 317 317 319 319 320 321 322 324 324 325 324 323 319 317 312 306 303 303 304 293 291 302 310 312 313 316 313 311 305 304 305 303 302 302 304 303 300 301 299 301 300 299 300 296 294 294 295 298 297 295 297 294 291 291 290 290 289 287 289 289 290 289 288 288 288 290 292 293 297 292 292 294 295 295 295 294 297 301 305 308 309 310
313 313 314 314 315 316 316 317 318 319 320 318 317 316 314 309 309 309 315 314 309 307 308 308 309 306 304 308 309 312 316 316 308 308 305 304 305 303 301 303 302 301 300 297 296 299 302 295 293 293 296 296 297 298 299 295 297 294 291 291 290 289 289 288 287 289 288 288 287 289 289 289 291 293 295 293 290 292 292 293 295 296 296 297 301 305 307 309
312 312 313 314 314 315 316 317 318 318 319 316 314 309 300 302 299 300 306 309 313 312 309 309 309 307 306 308 311 312 307 308 311 306 305 307 306 304 298 301 298 296 297 297 296 297 300 295 294 297 297 297 297 296 294 294 294 292 290 289 288 287 289 288 289 288 288 289 285 285 286 288 290 292 294 294 289 292 292 292 293 294 294 295 297 300 303 307
312 312 313 313 314 315 316 316 317 318 319 316 311 306 307 308 313 316 312 301 309 309 311 310 310 305 309 311 314 316 312 305 305 305 307 306 304 303 297 299 297 295 295 296 296 294 294 293 296 298 297 297 296 294 294 294 291 290 289 287 286 286 286 288 287 287 287 288 286 284 286 288 290 291 293 293 293 293 294 294 295 294 294 293 294 296 298 300
311 312 313 313 314 314 315 316 316 317 314 308 307 309 307 313 315 318 315 308 304 306 308 308 305 305 306 310 312 315 305 302 300 304 305 305 302 302 298 297 296 294 294 296 292 291 289 293 296 296 295 295 294 292 292 291 289 288 286 286 286 287 287 288 287 287 289 288 286 285 285 288 290 290 291 293 292 293 294 293 294 294 295 294 295 296 296 296
311 312 313 313 314 314 314 315 316 313 311 310 309 309 314 317 318 317 311 301 297 304 307 308 307 306 305 305 312 311 305 304 305 302 308 304 301 301 298 298 295 293 292 295 295 293 291 293 295 293 294 295 293 291 291 290 288 288 289 287 285 285 286 287 285 286 286 286 287 285 286 288 289 290 293 293 291 292 293 291 291 292 293 296 296 295 295 296
310 311 311 312 313 314 314 314 308 307 310 310 309 313 315 317 319 318 306 300 299 299 309 308 307 307 308 309 312 308 306 306 306 308 306 305 302 299 297 297 296 292 293 295 295 293 291 294 295 293 293 294 293 290 290 291 288 286 288 290 291 288 286 286 287 287 285 284 285 286 282 284 285 286 290 292 289 289 289 291 292 293 293 293 293 294 295 296
310 310 311 311 312 313 315 305 304 308 308 304 309 313 316 317 319 316 307 293 286 295 304 296 309 301 313 305 309 304 308 301 304 308 305 306 307 301 298 295 295 291 292 294 294 294 293 293 295 293 292 291 292 292 291 293 289 287 288 289 289 289 289 289 287 287 282 281 286 286 283 280 283 288 289 288 288 290 291 290 291 292 292 291 293 294 295 295
309 309 310 311 311 313 304 298 308 308 300 304 312 314 316 317 319 313 300 287 284 295 294 304 303 303 310 307 307 308 292 294 301 304 303 304 303 302 298 294 292 293 295 295 293 290 291 293 293 293 292 291 289 290 291 293 291 288 291 290 290 290 290 289 288 286 283 284 287 285 284 280 281 288 290 291 288 290 290 291 290 291 291 291 292 293 294 296
309 309 310 311 311 312 305 309 306 303 303 308 313 314 317 317 317 310 297 281 278 300 294 297 302 312 308 307 308 302 300 302 296 299 305 302 302 298 299 294 296 293 294 295 287 289 293 290 292 290 290 289 289 289 290 295 294 292 291 292 291 291 291 290 289 285 285 284 283 284 287 283 280 283 283 285 290 292 291 292 292 291 292 293 293 294 294 295
308 309 309 310 311 312 311 308 306 303 308 311 313 315 317 317 313 300 288 280 293 293 311 297 311 306 304 307 302 299 299 304 297 300 301 302 299 299 294 294 294 295 294 295 293 286 288 292 293 293 291 288 287 290 293 296 292 291 291 294 292 291 290 290 286 288 285 282 282 283 284 282 284 285 287 284 284 288 290 291 293 292 293 293 294 294 295 295
308 308 310 310 310 309 309 310 307 310 311 312 314 316 316 312 303 290 283 277 296 284 299 299 299 295 303 297 295 298 298 295 298 298 301 299 297 296 292 298 296 294 292 288 286 286 287 291 294 292 291 290 290 291 294 296 294 294 293 291 290 288 286 285 286 285 285 281 283 284 282 284 281 285 288 287 288 289 288 289 290 291 292 291 292 293 295 295
308 309 309 310 305 308 310 303 307 312 312 313 315 314 311 302 290 284 279 285 294 289 299 296 294 303 297 294 289 297 297 295 295 296 293 297 294 295 297 295 295 291 287 287 285 284 285 288 291 289 289 288 292 289 289 291 293 293 289 287 289 287 288 286 285 286 281 280 281 280 282 283 280 283 285 290 288 285 290 291 293 294 293 294 294 293 293 292
307 308 309 308 309 312 305 302 309 312 313 315 314 305 301 284 290 282 280 298 284 289 290 291 297 298 297 297 294 294 292 293 295 295 292 292 291 293 295 290 292 285 286 287 285 284 284 286 285 287 290 294 288 289 287 290 291 291 290 289 286 281 282 279 282 279 280 280 281 278 280 280 282 289 286 287 287 288 287 288 291 291 292 292 292 291 291 291
307 307 309 309 309 308 310 311 312 312 314 313 307 305 291 283 277 287 285 288 282 295 289 298 294 297 296 294 291 294 296 290 295 295 295 293 293 293 293 293 295 288 284 288 284 282 281 282 284 286 288 290 293 287 283 285 288 289 288 287 284 279 278 277 279 277 278 281 280 280 281 280 286 287 289 292 296 296 292 289 289 290 290 291 292 291 290 291
306 307 305 308 309 312 312 311 312 313 312 308 302 294 289 281 280 291 285 286 288 294 297 294 296 297 295 291 291 294 290 293 294 293 294 290 292 290 291 290 294 286 287 288 283 282 277 276 283 285 283 287 292 290 289 286 288 289 290 291 287 284 279 276 277 278 279 279 278 279 279 280 281 285 286 288 290 289 288 287 288 288 288 289 289 289 289 290
306 306 306 308 311 312 312 312 313 313 310 304 296 289 280 279 287 282 285 285 291 294 292 297 294 293 291 292 292 295 292 288 295 293 290 290 288 291 290 290 291 286 286 286 283 280 281 279 281 287 286 291 291 289 290 288 288 288 288 289 285 285 283 276 272 277 275 275 274 276 282 282 286 287 289 288 286 287 288 288 288 289 288 287 288 291 292 292
305 303 307 307 309 311 312 312 314 312 307 299 290 283 283 287 282 287 287 293 293 290 292 295 293 289 287 287 292 292 293 290 293 292 289 291 292 291 293 292 289 291 290 287 284 278 280 279 283 285 285 291 292 289 289 294 283 286 288 285 287 288 284 278 276 277 274 273 275 275 278 283 284 289 292 294 290 290 287 286 286 287 287 287 288 290 291 293
300 304 302 307 308 311 312 313 313 309 305 296 288 282 289 288 291 288 293 292 292 294 292 285 287 287 284 283 286 289 290 294 292 291 286 291 288 292 292 291 294 290 293 287 281 281 281 278 283 282 283 285 283 289 290 289 287 288 284 288 288 287 284 281 276 272 271 272 274 274 279 281 280 282 285 283 287 290 290 287 286 285 286 287 290 291 291 292
300 303 306 306 308 311 313 314 310 306 301 293 285 289 289 288 292 291 295 295 296 295 290 289 288 291 285 286 284 288 292 290 288 291 286 291 287 296 292 291 291 292 292 287 287 284 286 278 282 282 283 286 286 288 287 287 286 290 286 291 289 280 279 281 277 273 270 268 271 272 274 276 280 284 285 287 283 286 291 291 288 288 288 288 288 289 290 290
301 304 298 305 311 312 312 312 309 303 296 288 286 288 285 290 293 294 296 297 297 294 290 291 287 289 290 286 287 290 292 287 291 289 287 288 286 292 292 294 288 291 292 288 287 284 282 277 278 283 283 284 285 286 281 284 287 287 288 287 286 283 278 277 280 274 275 271 268 273 269 280 280 281 284 289 292 290 290 290 290 289 289 288 288 290 290 290
301 298 295 307 311 312 312 310 304 299 292 285 287 287 290 289 291 296 298 298 293 293 291 291 292 288 290 289 289 287 291 291 291 290 291 290 288 288 293 291 287 288 291 286 284 285 281 282 274 282 283 284 281 284 283 285 283 283 284 284 285 283 284 282 280 278 276 266 266 269 273 278 281 283 285 289 290 292 292 293 291 289 290 290 289 289 290 290
304 298 296 309 310 312 310 304 296 289 288 292 293 289 290 289 294 295 298 300 297 296 294 292 292 288 289 288 288 292 290 290 291 290 289 288 290 284 291 292 289 288 287 286 289 283 279 281 278 279 281 281 279 281 283 286 288 287 287 285 287 284 279 278 276 278 273 275 273 267 276 281 283 281 286 288 290 289 290 289 291 290 289 289 290 290 289 289
298 289 294 308 311 310 303 291 291 296 292 289 288 290 288 298 294 294 296 298 298 293 297 296 295 293 291 290 291 291 290 289 290 290 288 287 292 285 288 291 291 292 290 285 286 284 282 281 282 275 278 282 283 284 282 283 286 284 285 284 286 284 280 274 273 274 272 275 271 269 270 280 286 285 285 287 287 285 284 284 286 287 287 288 289 289 289 288
294 292 304 308 309 307 299 291 295 292 290 292 297 292 295 294 293 295 294 296 292 292 295 293 293 292 292 292 292 291 291 288 290 289 289 286 288 283 288 291 292 292 292 284 289 286 289 282 279 276 280 280 282 282 283 282 285 285 283 281 283 284 283 280 275 275 277 273 275 272 272 280 287 284 284 283 282 283 282 283 285 285 287 288 288 289 288 288
296 297 299 307 309 307 295 285 284 288 291 293 292 290 295 291 293 293 293 295 293 293 294 292 293 295 292 294 293 289 293 286 289 286 284 286 287 287 290 291 294 292 292 289 289 290 282 281 283 275 274 276 278 283 283 284 284 280 281 282 283 283 284 281 278 279 278 278 275 273 275 280 284 282 281 281 281 283 284 284 284 287 288 288 288 288 288 287
298 301 300 301 307 303 292 294 292 291 289 288 289 289 289 290 293 296 295 294 294 296 295 293 294 295 292 294 292 293 294 290 287 288 284 286 286 286 291 291 294 293 292 292 295 293 285 284 284 278 274 273 271 271 276 279 281 281 280 284 284 286 285 282 280 280 277 281 281 278 281 284 283 283 283 281 282 284 284 284 282 285 287 288 287 287 287 288
294 286 294 295 300 299 298 299 295 291 288 288 287 288 291 288 292 295 297 294 294 297 294 295 295 296 292 292 289 289 289 288 290 284 287 285 283 285 289 292 293 292 292 295 294 291 284 284 286 285 282 280 282 281 284 286 283 282 282 285 285 286 285 286 280 275 280 279 280 284 285 282 283 285 283 284 285 285 287 287 287 286 285 285 284 286 287 288
297 290 290 285 294 295 293 295 293 294 288 290 285 288 288 289 290 291 297 291 289 293 292 295 293 291 290 291 289 289 289 286 286 288 288 286 284 286 287 291 290 291 294 293 293 288 283 284 285 285 285 282 281 280 285 288 284 285 284 283 285 284 284 284 282 282 281 277 278 284 284 284 285 285 287 286 288 288 290 289 287 286 287 288 289 287 289 289
290 293 296 297 289 284 288 288 291 292 293 292 288 290 289 289 289 287 292 290 292 295 292 290 294 294 293 292 291 287 287 286 286 285 286 283 283 284 286 288 290 292 293 291 293 290 286 284 285 284 282 280 280 283 285 287 286 285 285 284 283 285 283 283 284 285 283 282 281 283 284 284 284 287 291 291 291 294 293 291 291 289 288 288 287 286 287 288
292 294 294 299 291 292 292 291 292 292 290 291 289 289 288 290 288 291 290 288 290 292 294 287 291 292 293 294 292 288 288 283 281 285 286 284 285 284 284 285 287 286 292 289 290 285 288 280 282 284 280 280 280 283 283 285 283 282 284 284 285 285 284 285 286 286 285 285 287 283 281 283 285 285 288 291 292 289 288 286 286 288 291 291 290 290 290 291
290 292 285 292 294 293 293 291 291 291 288 291 287 288 289 290 289 291 292 290 288 290 294 291 291 292 294 293 293 289 289 291 289 285 287 286 284 287 286 286 285 283 285 287 287 284 285 278 284 278 276 276 279 280 281 282 283 282 283 284 285 285 286 286 286 286 285 286 287 285 284 286 288 287 288 288 286 286 287 289 290 290 289 290 289 289 291 292
292 293 297 293 290 292 292 292 291 290 288 289 288 289 290 291 290 292 291 293 292 290 292 291 293 292 294 293 293 292 294 294 293 292 290 290 285 289 287 280 286 286 286 287 284 284 282 275 276 279 276 274 277 278 279 278 279 279 281 283 283 284 282 284 283 285 284 284 285 284 284 285 284 289 290 290 289 291 293 294 293 293 291 290 290 292 293 294
292 293 295 296 289 293 290 292 292 290 286 289 289 289 290 291 293 293 289 289 291 295 295 295 294 293 291 292 291 294 295 295 294 293 293 294 294 292 290 290 291 288 287 286 284 285 281 280 278 278 279 275 277 278 280 279 280 278 281 284 285 284 285 286 287 287 288 288 284 283 285 289 288 287 288 287 290 291 291 291 292 292 292 291 292 292 293 292
Wind_Speed
10 10 10 9 9 11 12 12 12 13 15 14 14 17 16 16 18 17 17 17 14 17 17 17 17 18 20 20 19 19 17 10 10 10 8 6 5 7 8 5 9 9 9 3 2 5 6 5 6 3 6 5 4 1 3 3 1 1 2 4 1 2 3 4 4 8 1 1 2 1 3 1 4 0 0 1 4 4 1 2 4 2 4 4 4 4 3 11
11 11 10 9 9 10 11 12 12 12 13 13 14 16 19 17 16 18 18 17 15 16 17 17 16 16 17 19 20 20 15 11 11 10 17 3 7 12 7 8 10 11 7 4 6 6 10 3 5 6 6 4 1 1 3 0 1 2 2 2 5 5 1 3 1 5 1 3 3 2 1 3 3 5 2 2 2 1 1 3 1 2 3 3 1 7 10 13
12 11 10 10 9 10 10 11 12 13 13 15 15 15 17 18 17 17 17 16 15 16 16 16 16 15 16 17 17 18 13 5 6 17 15 4 11 11 10 9 7 8 4 5 3 7 7 9 6 8 4 5 4 2 2 2 2 1 2 2 3 7 2 3 2 2 5 1 5 3 0 3 2 3 2 2 2 1 7 6 2 5 8 6 3 8 10 12
11 11 10 10 9 9 9 10 12 13 13 14 17 17 15 18 18 18 17 17 16 16 16 16 16 16 15 17 17 9 6 3 11 7 3 9 12 10 10 10 7 6 7 6 6 7 8 8 6 8 4 5 2 1 3 1 0 1 2 3 3 5 1 3 3 4 2 5 1 0 0 1 3 5 3 3 3 5 7 8 11 14 12 10 9 11 11 13
11 11 11 10 10 9 9 9 11 13 13 13 15 16 17 19 18 19 18 18 17 17 18 16 16 16 16 16 15 7 7 3 7 7 5 14 12 12 12 9 8 5 8 9 12 8 8 8 5 4 4 3 1 3 1 0 1 2 2 1 3 2 0 2 4 4 1 3 1 0 0 3 1 1 3 9 8 9 9 9 10 7 8 12 12 13 12 14
11 10 10 11 11 10 9 9 10 13 14 13 15 16 17 19 17 17 18 19 18 18 18 17 16 16 16 15 8 6 11 9 2 3 11 15 14 13 11 9 9 10 12 8 7 8 12 2 7 3 2 4 6 7 2 2 0 3 0 1 1 2 1 1 1 4 2 1 2 0 3 2 4 2 3 7 13 3 2 3 8 8 9 9 11 13 13 14
10 9 9 9 9 10 9 8 9 12 14 13 13 15 17 21 21 19 19 19 18 19 19 18 16 15 15 10 3 5 11 4 0 5 4 16 14 12 11 10 11 10 11 10 10 6 5 8 4 4 6 4 2 5 2 2 4 3 2 1 2 3 3 4 3 3 3 6 3 3 1 2 1 5 1 6 12 2 2 4 5 6 10 12 13 15 17 18
9 9 9 8 8 9 10 9 9 11 12 13 13 15 17 19 22 22 21 20 19 19 18 19 16 15 13 5 6 5 6 5 3 3 8 12 13 13 12 6 9 9 11 14 10 9 8 9 8 3 2 9 4 7 3 3 5 3 1 2 1 2 5 6 5 5 4 7 0 1 1 4 7 3 2 9 10 4 2 3 6 8 10 10 12 15 14 14
9 9 10 8 8 9 9 9 9 10 10 12 13 13 16 23 19 19 20 19 18 18 18 18 17 15 10 4 4 5 10 2 2 4 6 5 7 10 12 5 3 10 7 7 9 12 9 2 5 4 5 4 3 7 4 7 6 6 5 2 2 3 3 5 3 2 3 1 3 2 5 4 4 2 5 15 4 6 5 6 7 8 10 12 14 15 14 14
9 10 10 9 8 9 10 9 9 10 10 11 12 13 13 19 23 22 21 21 20 18 16 15 17 15 6 6 5 10 3 3 4 2 7 9 6 8 6 9 5 10 9 4 5 8 3 5 7 3 10 6 5 4 7 6 3 3 5 2 5 8 5 2 2 2 1 2 6 3 1 0 1 2 7 2 2 6 5 6 4 8 11 11 10 11 12 13
9 10 11 10 9 10 11 10 9 9 10 11 11 12 14 16 22 23 23 22 21 19 17 15 15 12 5 6 11 12 1 3 0 4 9 10 9 8 5 7 7 6 10 3 7 7 5 10 6 4 1 3 5 2 6 3 5 4 3 0 5 7 5 6 4 6 1 2 6 4 1 1 1 1 10 2 1 2 8 5 7 7 8 9 10 11 11 10
9 10 11 11 10 11 12 11 10 10 11 10 11 13 14 17 21 24 23 23 23 22 21 18 16 6 4 6 9 7 2 0 1 4 7 10 6 4 6 7 6 9 10 7 5 0 6 10 9 4 3 5 4 5 5 3 3 2 3 2 4 5 7 1 4 1 0 2 5 5 1 1 1 6 10 2 1 2 5 5 6 7 6 8 9 8 8 11
8 8 10 11 11 11 12 12 11 11 11 10 11 11 12 16 19 21 23 23 24 21 19 14 9 7 8 9 6 1 1 0 4 6 6 5 5 4 3 1 4 7 9 10 6 3 3 10 8 6 3 5 7 2 1 5 2 3 4 2 4 5 7 6 1 1 2 2 6 3 6 6 9 15 5 1 5 4 5 5 6 6 7 7 8 9 9 7
7 8 8 9 10 11 12 13 12 11 11 12 10 12 13 13 19 23 25 24 25 24 23 23 5 6 10 4 1 2 2 4 7 7 6 5 9 1 3 3 5 4 2 5 3 4 5 3 7 8 2 5 4 1 7 3 2 3 2 2 2 1 6 4 0 1 5 1 3 1 7 5 6 11 8 4 4 8 8 8 7 6 8 7 7 8 9 10
8 7 8 9 9 10 11 12 13 11 12 12 11 10 11 11 15 17 23 21 23 23 21 15 6 7 8 2 2 2 9 5 9 5 5 9 8 4 3 4 7 6 5 7 5 3 6 9 9 4 2 2 5 3 4 2 2 1 4 4 2 4 5 7 3 3 4 0 2 2 6 8 8 11 0 3 6 5 8 8 8 8 8 8 7 9 9 10
8 8 8 8 10 10 10 12 13 13 12 12 12 10 10 11 16 18 23 19 24 25 17 12 7 4 6 7 2 10 6 9 9 6 2 5 7 6 4 7 5 6 8 4 3 4 3 5 4 4 4 2 3 5 4 3 0 4 3 1 1 3 5 6 1 2 3 2 0 8 6 3 4 4 2 1 4 3 7 7 7 8 8 7 8 8 9 8
9 10 9 9 9 11 10 11 13 14 12 11 11 11 10 12 17 21 20 23 17 13 15 9 9 4 8 0 4 10 6 3 7 2 1 1 6 9 10 7 4 6 8 6 3 6 2 6 2 3 2 3 3 5 5 5 1 2 1 5 5 4 3 2 4 3 3 1 3 4 4 7 5 5 2 1 6 5 5 9 6 5 6 7 7 8 9 10
11 12 12 11 11 12 12 12 13 14 14 11 10 8 9 12 18 22 20 18 11 12 6 2 10 6 4 4 11 10 6 7 9 6 3 0 8 9 7 4 4 10 10 8 1 5 1 4 1 5 2 4 5 7 10 9 9 6 4 3 4 0 0 2 1 0 2 1 2 3 6 11 9 10 7 5 5 6 9 10 8 8 8 8 8 8 10 9
13 14 13 13 13 13 14 14 14 15 15 11 11 10 9 10 12 16 13 13 13 8 10 10 14 13 6 17 5 11 7 9 10 11 6 7 2 4 5 4 9 14 8 7 2 6 0 4 3 5 8 6 8 9 9 4 8 7 7 5 1 2 3 3 3 2 2 3 3 5 8 8 11 12 15 3 5 7 8 4 5 7 7 8 9 10 9 10
14 14 15 15 15 14 15 15 16 16 16 10 7 6 4 8 9 6 14 15 18 16 12 22 21 6 11 14 9 5 8 12 12 6 7 5 10 9 7 7 4 3 11 9 6 5 3 8 8 9 9 10 10 9 5 4 5 5 4 3 3 4 3 2 2 1 1 2 6 8 7 9 10 11 14 4 4 4 6 8 9 8 8 9 9 10 10 11
15 15 16 16 15 16 16 16 17 17 17 10 8 8 9 14 15 9 13 16 20 16 12 20 20 8 3 8 13 18 13 6 9 10 13 5 8 15 7 9 8 8 3 7 10 2 3 8 9 6 6 11 10 6 6 4 5 8 6 5 4 3 7 3 1 2 3 2 4 1 3 8 12 13 14 8 5 10 10 10 10 11 9 8 9 11 12 15
17 17 16 18 17 17 18 18 18 18 18 9 11 11 7 13 2 3 10 9 16 5 15 21 14 9 2 12 16 18 6 7 10 10 6 8 14 14 8 9 14 12 5 9 8 6 8 11 6 7 6 7 5 5 4 7 4 3 6 5 3 4 3 7 3 2 2 2 7 4 5 10 11 12 13 13 9 9 9 10 11 11 10 9 10 11 12 7
17 17 17 17 18 18 18 18 17 18 11 12 12 15 17 6 1 4 3 3 9 3 14 22 19 12 9 4 4 12 12 11 17 17 16 8 15 10 12 10 10 10 9 11 12 8 7 8 8 6 7 9 4 4 5 4 4 5 6 6 6 3 3 5 1 4 2 2 3 4 8 11 10 10 14 14 7 8 10 10 12 9 11 11 13 13 10 10
16 16 17 17 17 19 19 18 16 14 13 15 16 22 11 2 4 6 6 7 2 1 7 18 23 16 16 15 8 16 20 9 12 19 12 10 15 6 8 14 15 10 12 14 13 13 4 3 6 8 7 10 7 4 7 6 4 0 5 3 4 2 3 4 3 2 3 1 1 4 7 11 8 10 12 5 5 7 10 6 9 9 9 10 5 3 8 13
17 17 18 17 18 17 18 16 12 12 13 18 20 18 10 2 6 11 5 2 1 2 3 11 3 8 9 3 8 10 5 4 4 11 12 14 14 10 9 2 7 12 14 10 8 7 1 2 8 9 6 8 9 8 9 9 6 3 4 6 7 7 6 1 2 3 6 3 1 3 5 8 3 7 11 4 2 5 5 8 12 13 11 9 10 12 9 9
19 20 21 20 18 19 17 12 10 12 16 19 18 15 11 7 8 4 3 3 6 3 8 18 7 10 5 7 10 2 11 11 2 10 11 9 4 7 6 5 2 13 13 12 9 2 3 1 8 12 9 6 7 7 6 8 6 6 7 5 6 7 5 5 2 3 3 5 1 3 5 9 5 10 6 5 5 9 6 8 10 9 9 7 11 11 12 12
22 23 23 23 21 17 12 10 9 14 17 18 19 12 12 11 5 4 5 3 9 9 10 5 14 8 8 17 16 13 17 8 3 8 9 4 12 1 15 10 4 3 2 4 2 6 4 8 6 5 7 9 7 10 7 9 8 5 2 10 6 6 4 3 4 3 4 2 4 1 3 5 9 12 4 8 10 13 11 11 8 10 9 10 11 12 12 12
25 25 25 24 23 19 13 7 13 20 22 18 12 13 12 10 8 3 9 8 9 14 11 6 3 4 8 12 17 11 3 21 13 10 6 2 2 1 3 17 16 18 9 7 13 1 13 9 12 12 8 8 10 4 5 7 6 2 5 9 9 8 4 5 4 2 1 3 7 2 0 4 7 8 5 1 12 15 14 11 10 8 11 12 12 13 13 14
26 27 26 25 24 25 17 18 15 21 24 18 13 15 12 12 11 9 6 9 2 5 2 14 1 7 14 16 13 3 7 6 7 9 4 2 3 4 6 5 5 13 3 4 9 1 2 8 12 12 10 9 3 7 10 10 6 2 6 3 4 5 4 3 2 1 2 2 8 3 2 4 16 6 9 1 4 13 7 7 11 10 12 12 12 12 13 12
27 27 27 26 19 14 15 19 21 25 22 15 13 13 13 13 11 13 12 8 8 6 8 5 11 16 23 19 6 7 16 2 3 5 2 3 2 5 2 3 12 9 4 6 8 1 1 4 3 6 8 6 7 2 7 11 2 8 7 7 4 4 2 3 3 2 3 6 7 7 6 5 10 3 10 7 9 8 8 6 7 8 9 11 11 11 10 11
28 28 28 24 14 11 12 21 22 24 16 15 14 16 13 9 17 13 14 2 7 1 6 14 10 22 23 23 13 8 13 7 10 16 7 2 3 4 11 10 4 7 5 4 4 3 3 2 3 2 3 4 5 4 5 2 11 12 3 5 6 3 5 5 2 2 2 7 3 3 6 7 8 3 5 8 3 2 6 9 10 11 11 11 10 10 8 5
29 29 29 19 15 13 22 22 25 17 18 19 21 19 16 21 12 20 6 2 14 13 17 12 17 23 24 15 14 18 15 8 11 14 16 13 14 15 16 15 14 11 8 10 6 1 3 4 2 2 5 12 4 9 1 3 4 4 8 8 8 2 3 2 1 5 10 7 1 1 3 1 17 14 4 4 7 8 8 9 10 9 9 8 8 6 5 4
30 29 30 22 20 17 24 22 20 19 22 24 20 14 16 16 24 11 7 10 3 14 6 17 22 27 23 21 13 13 14 17 13 12 12 6 12 7 3 5 9 5 11 11 8 5 2 1 0 3 4 4 11 12 6 5 7 7 11 10 8 5 5 6 3 2 4 2 2 3 1 5 9 10 10 15 16 13 8 7 8 8 10 10 9 7 7 8
32 27 17 16 19 21 22 18 17 26 27 23 18 19 15 15 12 8 12 4 9 5 18 15 18 22 30 21 16 16 10 7 21 13 14 11 11 12 7 5 14 6 6 10 10 9 9 2 9 8 4 2 7 5 9 4 11 7 2 7 4 4 5 6 4 8 6 3 1 4 2 9 2 4 1 5 6 7 6 4 6 6 8 9 8 8 10 11
31 25 19 19 21 25 23 20 24 31 24 21 18 19 27 22 3 11 8 7 7 14 14 17 22 23 16 13 16 19 4 11 14 17 14 17 13 14 17 14 11 7 5 14 5 2 7 1 2 4 3 11 11 5 7 8 5 1 2 3 1 6 3 3 3 2 2 1 0 3 8 3 6 4 8 6 4 7 7 8 6 9 7 5 7 9 10 9
22 15 17 15 20 20 19 17 24 29 24 22 18 20 23 15 7 4 9 9 13 15 16 17 18 18 10 9 10 17 5 10 18 14 8 14 13 16 13 8 14 14 15 13 7 5 1 4 1 2 3 15 14 8 5 12 10 8 6 9 7 2 7 3 1 0 3 2 8 3 8 8 7 8 9 14 7 11 4 5 3 7 5 3 7 9 10 10
14 15 17 18 19 22 22 21 22 24 21 22 19 20 18 1 4 7 8 22 19 27 24 22 12 14 10 10 10 7 8 11 18 14 10 8 6 8 12 8 12 11 11 10 3 1 10 4 2 3 4 2 2 6 7 1 2 8 9 7 5 2 3 4 2 1 1 4 6 2 9 7 2 10 5 4 4 10 9 5 5 5 4 4 6 7 6 6
13 14 16 21 19 24 23 23 26 21 19 20 20 14 2 15 3 8 7 17 19 23 21 15 7 9 13 16 10 13 15 19 12 9 10 15 5 16 17 11 10 14 13 1 7 5 9 5 0 2 1 1 1 5 3 1 2 7 6 6 11 4 2 2 3 3 1 2 5 4 4 7 8 10 8 10 4 6 11 8 3 5 3 5 5 8 10 9
16 16 12 20 22 26 22 26 23 21 19 19 18 24 4 1 12 12 15 12 19 18 18 10 15 1 12 15 15 15 22 16 17 14 17 10 7 12 19 13 12 13 11 7 5 5 4 8 2 1 3 3 1 5 11 7 1 2 2 5 1 3 2 6 8 3 5 3 1 7 4 7 5 6 9 14 13 9 9 8 5 3 6 3 4 6 8 9
14 10 10 22 24 25 26 25 19 20 17 22 22 14 3 4 11 14 17 23 12 16 7 18 13 17 15 13 22 17 9 16 22 14 13 11 8 3 22 7 10 11 13 4 3 3 3 3 7 1 1 2 5 5 9 12 11 5 4 7 2 1 2 5 1 4 4 4 4 2 7 5 7 6 5 10 9 10 9 12 8 5 3 2 4 7 8 8
12 11 9 21 26 24 25 21 20 22 15 12 18 9 8 9 13 13 18 21 13 2 8 16 17 17 14 15 9 11 10 16 13 12 8 7 13 6 11 16 13 16 6 4 9 3 4 2 11 5 4 7 5 2 6 11 10 10 13 15 16 12 6 7 6 2 1 2 4 2 10 5 6 3 8 9 10 7 9 6 10 7 5 7 7 6 5 8
11 10 9 26 27 30 26 22 13 14 11 21 20 11 8 5 15 19 14 9 12 7 2 12 15 18 23 19 21 15 13 14 15 12 7 12 17 2 6 16 16 18 15 9 10 3 6 4 10 7 5 7 2 1 2 1 3 4 4 4 4 3 5 3 4 3 1 2 4 2 1 10 4 4 5 7 7 3 4 3 7 7 7 8 8 7 8 6
13 7 18 29 29 31 22 16 16 18 17 11 13 6 8 6 11 17 19 11 3 2 8 6 9 12 6 17 17 13 14 10 19 14 8 4 5 3 10 21 19 17 10 3 8 4 8 6 8 2 2 4 2 1 0 0 2 1 1 2 4 7 3 5 2 4 5 1 2 1 3 8 1 4 7 5 4 3 3 3 6 8 6 7 7 8 8 8
9 13 16 18 28 27 23 22 24 20 13 13 16 11 9 8 14 18 17 18 8 8 14 9 3 7 16 13 19 20 18 9 7 3 2 1 4 6 19 20 28 16 16 13 14 10 5 2 8 8 4 1 4 1 1 0 2 2 4 2 4 3 4 3 4 2 2 8 7 6 9 8 2 3 4 2 2 4 4 6 7 7 6 6 7 7 7 7
7 9 15 16 20 20 22 15 17 17 18 19 16 18 15 8 11 19 18 15 5 11 12 13 20 14 5 12 15 15 16 5 10 5 3 4 3 5 19 23 25 18 6 7 9 11 6 7 10 11 13 12 7 10 14 12 9 3 4 10 12 18 16 11 8 8 7 11 18 8 15 4 4 5 4 5 3 5 5 5 3 7 7 7 6 7 8 7
11 13 11 14 14 13 10 12 17 17 16 19 15 13 15 9 6 13 19 15 9 15 6 14 13 16 16 19 14 12 12 2 9 8 9 7 3 2 10 24 21 12 11 16 14 7 5 4 6 10 16 18 16 4 6 13 6 10 12 15 13 9 9 9 2 4 17 2 10 18 16 2 3 3 2 5 6 5 10 7 5 5 6 7 7 8 7 6
8 14 19 14 12 15 16 14 17 17 15 17 14 10 19 19 14 7 12 8 3 7 7 12 12 19 13 19 14 14 13 5 6 10 13 11 3 5 8 17 10 9 19 13 16 5 5 7 14 12 6 1 3 3 10 21 19 18 14 13 12 11 12 16 13 16 6 8 11 12 3 11 9 7 7 8 8 7 9 5 5 7 5 7 7 5 8 9
10 5 18 20 21 19 20 18 16 17 14 18 9 9 17 22 22 16 7 4 6 9 13 5 18 18 27 24 20 15 13 7 9 13 8 2 7 5 9 9 14 18 22 9 14 8 9 12 7 7 2 4 3 9 13 13 14 11 17 16 16 18 15 19 23 12 7 11 19 5 10 9 7 11 12 11 9 16 12 10 10 11 11 5 5 6 8 10
1 6 5 15 13 22 19 14 14 20 23 21 8 14 16 24 24 17 9 3 5 10 11 14 20 22 25 22 18 13 19 11 5 6 13 14 18 15 11 4 5 4 16 9 12 1 7 1 5 7 5 5 5 5 6 13 5 5 9 13 19 18 23 25 23 16 14 14 16 4 2 8 7 7 8 11 10 4 6 5 6 7 10 11 12 11 10 10
9 17 7 6 6 20 21 20 18 18 18 22 13 13 14 19 24 16 11 15 15 12 10 18 20 21 23 23 20 19 23 27 28 22 15 21 13 15 17 12 9 3 1 8 5 3 6 1 4 4 5 2 3 3 4 6 8 9 8 13 18 21 22 22 16 11 12 17 16 5 11 19 9 8 10 4 3 5 6 9 9 9 9 11 10 11 12 12
2 1 16 20 17 18 18 18 18 20 14 16 15 14 13 20 19 18 11 10 19 16 17 26 24 21 20 24 23 25 31 32 28 30 25 25 21 16 15 4 10 17 9 9 4 1 6 2 2 5 6 0 1 4 3 4 1 5 10 16 21 19 15 11 9 8 8 19 6 5 14 21 3 12 6 2 5 11 17 17 14 12 10 8 11 14 14 14
0 4 2 16 16 23 20 15 14 16 17 15 13 17 14 22 16 18 13 6 6 15 23 29 29 24 18 22 26 30 23 12 9 7 17 10 11 15 7 18 18 17 9 9 1 6 4 7 7 6 8 5 4 6 8 5 3 4 12 28 20 12 14 9 14 15 20 17 9 14 21 14 7 5 5 7 13 15 13 12 12 14 12 11 14 14 14 13
Wind_Direction
239 231 232 237 228 215 220 229 237 226 222 225 219 215 202 194 187 181 181 178 161 167 170 175 173 173 178 182 182 191 195 190 217 236 219 223 169 163 161 149 158 163 162 113 84 61 30 29 47 8 54 58 315 36 325 7 23 63 71 110 246 200 138 198 177 191 202 32 323 186 217 188 196 164 215 85 40 58 35 220 300 299 252 261 277 281 171 139
241 237 229 234 238 225 217 219 227 226 225 231 225 217 205 194 187 185 181 177 163 168 173 175 176 172 173 179 183 186 179 196 219 223 229 102 159 155 162 159 158 164 142 95 108 102 97 55 79 79 84 63 325 134 353 229 64 84 118 105 218 180 222 144 179 220 1 314 290 263 214 195 245 145 212 135 268 75 120 256 351 330 287 14 52 124 137 147
243 239 235 230 238 238 218 221 223 228 214 224 225 223 212 192 189 183 181 173 166 169 169 173 173 171 169 167 169 161 161 181 199 227 229 201 164 158 160 158 159 168 151 147 175 137 140 153 147 91 20 100 8 186 30 262 22 220 124 204 246 210 250 251 206 292 198 182 307 316 300 151 246 170 109 218 155 89 203 206 260 238 221 210 165 143 151 156
245 247 242 237 236 241 233 220 223 225 224 211 225 223 212 206 184 180 176 172 169 166 166 167 167 167 164 164 155 163 151 116 221 229 244 174 165 156 152 155 146 120 94 71 125 97 106 96 73 92 73 74 336 65 133 244 65 276 117 192 212 184 103 195 186 224 233 164 225 296 43 183 250 202 170 175 124 240 253 228 188 204 201 182 173 159 161 163
243 243 244 242 241 244 243 228 226 227 224 220 211 225 209 212 181 180 175 174 171 166 164 163 165 162 164 162 163 152 119 151 252 207 196 164 158 156 148 142 133 125 108 125 85 92 104 120 103 52 94 135 18 47 258 27 112 107 209 191 153 117 106 242 210 180 176 205 135 86 210 237 70 62 191 160 189 225 212 228 217 217 177 160 169 172 168 171
243 239 239 240 242 242 245 237 226 228 225 215 216 216 220 206 195 184 177 174 171 168 165 162 163 165 163 168 141 149 147 195 273 209 180 162 158 150 139 128 132 125 118 101 116 126 107 65 105 109 68 100 179 158 214 127 291 192 3 190 198 201 231 245 213 212 168 139 146 167 222 65 179 240 185 184 216 226 232 230 212 191 167 176 159 159 172 177
237 239 237 239 240 244 242 240 229 226 224 221 223 217 220 208 194 186 177 178 171 167 166 162 164 163 166 133 133 148 192 265 353 279 192 158 150 138 126 127 130 121 116 107 124 128 138 128 107 158 117 69 215 181 151 132 352 102 167 184 227 171 226 240 255 183 192 148 210 204 79 209 154 236 159 197 235 174 296 237 227 171 143 149 159 175 177 185
232 239 238 230 231 237 242 241 233 229 226 222 231 222 218 210 195 179 173 175 174 170 167 162 164 167 145 140 138 202 194 242 249 304 199 155 141 139 126 121 129 125 122 140 142 125 131 133 137 127 105 162 209 157 129 69 18 114 207 167 277 146 240 276 272 279 203 223 246 123 175 236 192 201 76 243 235 222 353 87 119 129 140 157 165 179 189 191
225 230 236 226 223 233 233 237 237 226 222 225 230 228 220 209 191 180 177 172 169 170 170 161 167 161 155 103 138 146 222 225 241 257 165 130 126 128 133 121 166 132 132 130 142 145 119 222 126 165 206 134 161 114 167 139 263 189 218 25 307 266 284 284 287 243 216 203 156 108 247 276 260 252 257 249 228 201 132 80 119 134 147 169 182 185 184 190
221 222 228 228 218 225 232 225 231 233 221 225 232 230 228 220 188 180 176 174 168 169 166 170 160 160 136 111 110 199 204 292 299 172 131 117 116 134 131 138 123 115 114 125 123 136 128 184 155 171 113 47 167 142 150 201 216 143 164 195 296 288 316 316 337 268 262 232 171 177 302 286 351 116 274 342 257 148 111 112 132 155 175 185 184 189 193 189
218 217 220 223 218 222 229 225 223 231 229 223 229 231 229 224 195 177 173 173 168 166 166 176 165 149 151 139 170 203 310 98 17 123 129 130 134 146 154 147 140 112 115 130 158 169 160 134 138 121 25 183 128 121 173 212 130 78 115 189 265 299 274 262 289 289 273 272 185 158 243 280 306 95 244 240 358 190 150 155 166 181 187 190 193 192 197 201
227 225 221 221 216 216 227 226 219 224 231 228 233 234 229 223 204 179 173 175 171 167 171 171 170 142 77 154 203 200 341 176 100 132 127 135 137 151 146 159 146 139 140 156 200 255 146 146 141 136 184 125 122 97 255 176 97 134 150 262 278 335 313 292 254 298 21 288 165 161 59 317 211 222 241 184 144 120 140 162 190 202 206 198 198 196 196 205
234 233 232 225 220 217 224 230 223 221 230 228 229 237 241 231 207 183 172 173 172 169 163 167 178 153 131 184 214 219 267 220 106 114 96 83 94 53 77 62 126 144 152 147 183 187 158 147 150 118 133 135 153 161 98 94 62 98 52 140 334 356 306 281 332 134 146 269 170 169 267 248 234 236 232 238 132 111 125 187 202 212 213 211 202 201 207 196
232 225 231 233 226 220 224 233 229 222 225 232 228 230 238 238 217 191 176 174 169 167 164 166 172 159 165 202 340 238 120 129 100 115 138 139 104 52 57 41 70 60 33 107 90 132 115 81 97 111 73 96 162 157 96 19 41 165 180 85 207 44 263 284 137 202 201 146 183 333 240 267 281 262 249 178 179 160 204 211 207 213 216 216 210 210 210 210
244 234 225 228 232 225 222 231 240 230 224 227 231 231 234 223 216 200 180 170 165 161 158 152 160 134 184 216 354 270 125 116 138 172 185 138 123 89 90 62 60 58 73 104 123 119 125 109 107 107 106 264 108 97 66 59 5 54 113 254 350 169 272 297 187 170 202 335 123 143 258 247 252 267 297 204 181 178 219 216 212 213 216 216 213 215 218 219
243 242 236 227 228 229 226 226 235 240 229 223 229 226 226 215 205 202 182 166 162 154 148 156 182 158 147 181 198 130 114 158 187 165 262 136 139 143 159 102 101 73 86 38 104 123 93 100 98 156 114 56 102 122 88 96 21 4 160 283 248 142 256 338 316 222 263 131 279 185 233 326 291 285 321 89 164 198 222 236 226 221 221 220 220 217 221 225
247 247 240 235 231 230 227 226 233 241 238 226 220 227 219 223 213 198 185 158 155 149 157 162 167 156 168 17 101 164 176 154 119 112 123 279 128 139 117 105 93 88 83 94 113 111 44 78 261 75 32 130 159 142 124 210 78 185 359 210 191 185 210 211 286 55 357 14 250 231 231 231 263 279 280 331 171 167 228 245 242 237 232 230 235 232 226 225
240 244 245 239 232 230 227 225 228 237 240 229 216 215 221 218 219 199 182 161 143 153 140 91 142 123 238 135 177 195 127 116 148 133 108 297 142 141 123 103 121 110 109 102 10 104 339 94 322 155 101 149 153 174 185 203 181 180 192 190 261 329 327 280 24 267 8 58 255 318 258 258 269 287 254 215 187 184 223 228 226 220 216 223 227 232 234 233
240 243 241 243 239 230 225 222 223 229 238 229 219 222 225 230 232 197 180 152 156 161 170 180 156 191 197 191 117 104 139 138 112 139 169 127 188 109 83 99 125 131 131 135 240 120 117 88 78 131 183 164 187 188 198 175 171 194 174 176 106 166 212 209 246 299 56 314 278 243 245 266 262 260 270 205 180 189 240 271 257 241 233 224 221 226 230 231
240 240 241 242 241 237 230 219 218 221 228 228 219 223 213 210 210 216 165 170 184 180 161 152 175 130 78 102 117 101 101 132 129 195 145 192 137 122 117 138 128 81 145 157 136 166 143 154 183 189 179 180 190 195 173 179 153 137 131 138 214 196 273 282 265 253 100 356 244 242 245 246 260 257 265 277 153 229 255 255 239 236 230 225 225 228 232 233
243 241 239 238 238 237 233 223 215 215 218 218 212 203 216 201 215 222 167 183 177 191 153 163 159 114 141 133 122 126 128 175 155 166 179 170 144 133 169 142 152 146 180 135 135 122 136 176 201 182 166 177 185 157 128 105 123 143 153 165 214 168 244 230 205 339 321 158 285 316 281 254 253 259 260 246 176 236 230 235 241 243 234 232 226 231 226 231
250 246 242 238 235 234 232 226 217 213 214 213 215 216 236 225 218 274 149 195 195 186 148 158 140 85 66 132 156 147 127 124 140 164 201 168 168 167 199 163 165 161 118 118 100 131 184 203 167 183 169 164 164 156 153 155 138 104 138 160 153 257 269 285 271 350 312 109 263 300 291 266 259 261 261 260 230 243 229 216 227 223 231 228 228 234 238 235
255 252 242 238 235 234 231 226 222 211 213 214 215 217 228 228 16 350 348 95 185 254 170 153 162 139 114 118 161 133 132 174 163 176 181 189 168 194 163 158 168 135 145 154 156 153 176 219 184 159 142 148 163 152 142 112 92 115 94 137 195 217 133 290 289 354 319 180 269 293 301 282 271 257 255 258 235 247 238 226 235 211 219 221 223 221 227 231
259 253 248 240 236 233 232 228 225 221 216 217 221 223 213 109 161 152 179 183 157 217 187 175 159 154 152 152 191 170 164 180 153 172 175 174 174 145 164 167 142 145 168 175 165 171 174 138 153 135 151 146 154 149 140 149 173 154 157 138 151 162 205 164 241 302 297 347 43 318 292 285 235 256 270 248 241 244 257 251 251 244 234 238 259 280 215 226
264 260 249 245 241 234 231 229 229 221 215 220 229 225 206 161 208 185 122 124 177 247 160 160 155 151 148 44 143 166 152 77 187 172 167 177 152 146 181 130 140 174 164 168 150 145 115 202 124 138 147 153 150 172 180 147 194 186 243 186 174 165 140 265 333 27 11 332 324 71 343 263 298 253 256 276 306 230 250 236 239 240 229 233 241 242 238 236
265 262 256 245 239 237 229 231 216 213 213 220 221 213 199 195 218 252 197 219 218 162 153 189 138 189 125 130 129 131 139 172 162 164 165 186 177 149 126 165 157 170 158 156 161 162 172 166 161 159 154 154 165 177 199 161 170 155 240 162 161 158 125 87 16 71 268 239 256 44 218 281 319 292 263 275 275 264 276 248 254 254 250 233 231 236 236 229
267 264 258 250 241 231 234 225 190 198 215 224 218 192 193 188 195 175 215 202 233 181 175 103 175 172 167 165 140 141 176 180 88 140 175 264 177 310 159 161 63 31 137 138 85 225 112 126 104 115 141 164 166 193 208 166 137 210 196 140 124 110 143 150 99 128 240 260 294 104 133 262 296 273 223 256 269 265 268 269 262 265 260 246 237 234 235 234
266 264 260 253 246 230 237 233 190 200 214 218 176 186 175 178 160 284 218 213 222 126 192 158 248 141 170 147 148 164 357 130 142 190 180 193 152 52 158 173 167 159 172 134 188 22 142 158 164 168 168 174 200 164 130 167 152 217 178 149 160 162 156 132 103 149 220 41 291 49 38 302 230 272 310 353 259 263 254 266 273 260 257 250 244 241 237 238
264 263 261 258 253 246 245 224 198 201 211 205 167 175 167 151 187 207 223 222 109 121 62 137 97 130 120 145 148 120 128 159 136 152 171 93 333 156 155 178 113 138 88 159 172 123 329 178 180 156 160 190 177 156 155 163 148 275 140 51 80 82 69 121 109 82 341 50 264 152 180 232 277 235 263 355 249 258 262 254 257 240 237 241 243 242 240 244
265 264 263 261 264 257 243 217 209 204 205 168 166 156 140 161 203 216 193 212 132 171 184 127 157 162 144 152 124 150 140 306 117 103 101 156 175 61 43 118 125 128 129 40 82 220 205 327 145 123 189 172 151 146 167 168 116 119 120 110 84 45 40 24 63 83 34 260 251 164 204 166 293 202 219 186 228 213 233 265 264 253 242 247 244 244 243 237
268 265 264 260 253 245 212 205 204 200 171 159 146 142 150 177 223 238 217 145 88 293 116 157 150 142 156 152 142 159 132 131 134 144 139 172 76 84 128 72 26 65 48 57 33 354 26 42 125 265 112 78 102 82 7 75 139 133 143 131 107 5 27 27 343 27 164 255 111 247 174 165 223 289 259 219 247 232 209 227 231 239 240 239 239 239 249 267
272 268 264 261 249 231 206 197 194 166 152 152 147 160 168 201 216 230 151 200 161 185 162 129 150 154 157 150 142 156 146 130 152 158 156 169 155 155 177 156 162 146 176 180 175 77 52 154 249 34 278 139 125 106 8 93 167 123 132 132 131 172 65 260 102 219 208 230 201 181 138 45 233 241 309 279 259 258 228 223 238 256 277 284 293 302 283 266
276 273 269 264 254 226 207 195 170 154 151 151 156 165 187 206 229 175 124 170 271 153 177 150 159 159 153 149 160 141 141 152 163 161 147 135 149 162 132 136 167 129 168 176 131 116 264 297 303 199 62 258 149 147 162 144 205 164 160 154 139 147 173 212 186 328 323 294 281 95 121 272 277 292 220 243 254 241 239 234 253 256 262 273 283 300 305 299
275 273 270 256 249 214 197 182 151 150 154 157 166 167 205 231 229 77 147 201 141 133 146 152 152 148 157 165 157 148 140 164 162 161 151 149 151 162 175 185 172 117 68 149 156 179 139 220 239 160 199 187 161 159 162 128 159 179 76 167 168 135 161 202 174 199 216 208 221 284 78 233 133 244 336 234 262 294 288 248 259 264 260 267 282 291 285 275
275 272 264 258 221 200 184 158 161 156 151 162 175 194 193 208 152 179 153 144 147 146 143 148 144 151 160 134 155 162 155 152 178 148 161 156 175 170 178 183 188 108 125 133 246 98 201 185 293 160 230 154 169 177 129 110 89 296 177 56 100 222 116 147 207 151 203 193 248 203 212 205 193 268 286 250 265 290 278 281 276 274 268 274 283 278 272 265
281 269 252 220 193 188 167 160 157 157 159 165 182 195 210 192 203 195 166 137 142 140 139 144 148 145 149 133 160 155 352 151 166 148 170 176 176 178 180 169 175 172 161 166 151 146 125 186 329 352 78 166 177 149 170 151 163 199 124 216 197 147 94 110 49 333 94 48 256 172 292 277 297 288 250 265 269 271 264 267 274 268 283 295 263 260 273 282
267 260 225 192 190 168 166 158 161 162 165 172 184 209 199 195 187 120 190 163 161 139 149 152 185 148 148 149 161 160 130 116 164 151 165 161 173 190 180 204 179 174 183 128 143 231 141 164 1 62 173 301 346 172 168 119 149 115 198 203 79 97 119 131 201 1 105 185 263 101 239 290 35 280 330 7 280 275 283 277 269 280 311 311 286 293 280 258
269 230 197 184 180 162 159 157 159 167 172 174 199 192 197 205 159 177 165 149 150 161 154 150 149 152 150 144 171 150 156 151 174 154 153 185 194 188 182 182 176 185 178 269 115 202 130 80 276 320 183 344 39 100 79 324 352 156 190 191 147 219 237 265 89 249 140 273 270 293 272 268 200 251 347 334 337 274 272 278 288 299 283 256 282 295 297 299
255 203 194 179 163 161 153 153 164 164 174 181 188 195 196 144 156 187 178 164 151 152 154 169 134 299 150 155 150 160 165 163 172 166 155 206 200 184 191 173 186 176 177 150 115 146 65 126 312 310 135 216 92 163 179 175 355 45 67 175 201 105 164 151 199 167 112 237 50 283 28 261 187 220 210 245 245 236 249 270 278 250 267 277 280 287 293 302
211 187 181 160 160 151 152 154 165 172 180 193 182 192 130 143 170 182 179 161 172 157 164 147 161 134 166 156 155 156 186 158 170 177 177 184 182 216 187 155 152 172 175 170 126 163 94 113 138 205 293 124 168 200 189 162 158 163 151 184 219 260 243 116 94 145 171 174 182 269 312 277 255 214 183 239 250 248 258 277 278 262 262 254 257 273 290 292
190 170 158 152 150 149 146 155 170 186 169 178 189 169 175 159 159 182 187 175 148 296 156 158 155 150 152 140 170 167 149 160 171 174 173 157 176 159 211 181 150 157 129 144 134 177 83 88 137 157 124 203 242 224 172 184 190 179 173 189 187 163 160 153 242 29 91 125 237 144 267 241 269 173 202 221 247 235 251 272 290 288 313 305 298 283 261 291
182 161 170 153 146 149 152 163 178 167 174 185 189 148 158 162 154 170 185 210 158 138 58 151 166 152 149 161 157 174 148 167 179 174 202 166 198 123 189 138 152 157 154 169 154 218 141 100 110 148 202 176 224 330 285 327 187 180 154 226 157 158 95 98 147 256 24 247 114 150 263 280 240 220 220 215 233 291 336 1 284 299 296 288 287 285 294 268
176 159 139 152 153 154 156 168 160 171 190 169 98 108 150 164 174 168 165 188 173 267 125 141 162 132 167 146 162 151 162 161 176 186 163 164 174 183 157 145 141 158 134 140 114 187 91 108 95 27 14 313 323 285 348 77 120 169 331 59 120 197 174 163 156 181 160 234 136 308 265 243 250 195 221 235 318 262 220 194 250 272 277 273 269 288 294 302
162 138 141 152 160 160 164 172 166 171 159 170 175 155 160 149 171 169 173 170 163 174 149 138 128 183 149 161 149 163 168 131 221 151 64 148 147 171 147 150 156 165 169 188 156 193 91 261 123 122 96 350 346 349 314 305 107 168 144 193 168 147 179 179 106 142 243 212 158 140 238 266 270 344 296 309 350 333 273 252 201 248 267 259 277 294 297 287
136 125 134 148 165 173 176 172 161 158 163 169 165 161 157 168 209 177 162 166 176 160 146 167 159 153 133 146 156 152 174 155 152 220 94 149 119 161 158 163 166 169 163 132 139 159 99 173 145 145 158 172 184 194 202 192 178 204 185 174 191 187 184 147 193 196 198 213 173 188 240 236 297 341 342 324 16 328 301 274 276 217 246 273 291 288 291 299
167 140 137 134 166 170 188 175 171 156 149 159 162 170 153 140 191 215 168 168 176 166 171 141 140 136 141 152 156 160 168 318 150 167 155 161 123 216 186 169 173 164 156 148 145 130 127 161 194 173 174 188 197 179 52 102 111 184 206 187 199 198 183 190 79 123 215 167 172 225 224 13 317 261 312 294 330 304 295 301 277 270 258 254 259 264 265 282
152 156 152 146 138 183 182 176 172 168 167 157 162 162 167 159 163 214 209 170 303 159 129 152 137 138 160 148 156 165 167 92 53 141 177 152 127 140 171 166 150 146 153 145 161 94 119 162 208 190 188 44 121 156 164 151 174 196 172 193 188 183 185 191 186 220 119 92 245 231 175 242 235 282 272 286 281 290 275 248 227 244 273 267 262 265 293 297
167 167 163 159 153 162 173 189 183 175 148 162 158 151 168 157 170 176 204 316 157 175 132 148 160 159 157 165 155 158 161 154 149 161 135 103 109 128 146 194 166 177 161 169 177 167 159 187 191 131 148 40 44 139 159 167 182 176 182 184 182 194 184 197 217 207 141 190 234 138 171 222 230 217 241 259 296 280 291 312 311 315 310 276 236 259 262 259
112 109 119 157 157 158 173 141 161 173 169 172 139 167 171 167 172 173 163 146 165 179 159 148 171 162 166 160 156 161 162 136 198 163 162 166 161 154 153 163 284 231 171 159 183 232 137 194 160 151 131 66 27 111 163 155 157 145 183 189 198 188 200 205 215 203 203 227 234 142 213 226 222 226 218 230 234 274 295 303 315 299 275 287 300 295 292 292
168 150 152 137 86 156 155 155 165 168 175 175 164 192 170 172 166 161 171 162 163 175 156 151 162 166 167 164 167 165 177 182 176 179 184 154 157 163 171 170 141 102 123 162 158 297 114 256 109 99 95 37 4 42 64 152 146 187 209 204 204 206 208 210 213 213 226 252 251 319 298 275 227 200 230 240 346 280 312 289 259 254 271 278 282 285 287 289
315 354 154 151 151 162 151 157 162 169 164 177 181 174 182 174 173 167 171 186 166 161 167 165 160 168 171 170 178 186 187 192 176 172 154 158 172 191 150 229 159 156 154 155 153 223 80 198 23 103 94 257 349 98 64 87 112 177 214 220 216 205 211 213 215 209 200 232 221 242 258 255 133 208 219 201 266 263 262 263 262 259 255 261 267 272 275 278
105 10 56 146 146 158 156 158 157 155 182 180 172 170 177 180 168 164 167 224 212 179 172 167 169 157 177 178 190 198 190 170 153 134 158 159 134 144 155 145 148 153 149 156 112 122 117 139 131 125 137 210 210 142 145 118 126 303 254 226 201 192 204 191 218 206 210 211 196 224 237 239 200 170 161 207 219 237 246 249 260 264 261 251 253 259 266 269